2020-014C (45251 NORAD) Tracking and Keplerian Element Data

This shows tracking and keplerian element data for the satellite.

Feedback or suggestion? Click here.




ElementValue
Catalog45251
Name2020-014C
Epoch Orbit655
Epoch Day93.8938734
Epoch Year2020
RAAN168.2712
Inclination35.0073
Eccentricity0.0006087
Argument of Perigee318.4083
Mean Anonmoly41.617
Mean Motion15.28923577
Decay Rate1.249E-05
L11 45251U 20014C 20093.89387340 .00001249 00000-0 44700-4 0 9995
L22 45251 35.0073 168.2712 0006087 318.4083 41.6170 15.28923577 6556

Live tracking and technical data element details for 2020-014C (NORAD 45251). 2020-014C can be tracked NOW for your location showing map with azimuth and elevation plus other details from your city location.

Track the satellite on the map from your city or location and see movement details for azimuth, elevation, latitude, longitude, range, height, and movement on the map or in text.







IsCatalogInMostPopularTable: catalog: 45251, numindb: 15
Update: records affected: 1



GetName: 45251 2020-014C

Hit Count: updated at: Tue, 07 Apr 2020 16:12:51 GMT